Location: Oshawa
(43.9000°N, 78.8670°W)
Time: 12:08:51
(UTC-04:00)

Cosmos 1408 Rocket - Visible Passes

Search period start: 01 September 2015 00:00
Search period end: 11 September 2015 00:00
Orbit: 601 x 633 km, 82.6° (Epoch: 31 August)

Date Brightness Start Highest point End Pass type
(mag) Time Alt. Az. Time Alt. Az. Time Alt. Az.
01 Sep 3.8 21:48:02 10° N 21:52:17 49° ENE 21:52:26 48° E visible
01 Sep 6.1 23:27:06 10° NW 23:29:32 15° W 23:29:32 15° W visible
02 Sep 3.4 22:04:34 10° N 22:08:58 90° E 22:09:10 82° S visible
03 Sep 5.3 20:44:42 10° NNE 20:47:23 16° ENE 20:48:50 14° E visible
03 Sep 4.2 22:21:20 10° NNW 22:25:35 49° W 22:25:58 47° WSW visible
04 Sep 4.6 21:00:34 10° NNE 21:04:18 27° ENE 21:05:40 23° ESE visible
04 Sep 5.3 22:38:22 10° NNW 22:42:07 27° W 22:42:47 26° WSW visible
05 Sep 3.8 21:16:51 10° N 21:21:07 48° ENE 21:22:31 35° SE visible
05 Sep 6.1 22:55:52 10° NW 22:58:35 16° W 22:59:38 14° WSW visible
06 Sep 3.5 21:33:23 10° N 21:37:48 88° ENE 21:39:24 39° S visible
07 Sep 5.3 20:13:33 10° NNE 20:16:12 16° ENE 20:19:02 10° ESE visible
07 Sep 4.3 21:50:08 10° NNW 21:54:25 50° W 21:56:21 29° SSW visible
08 Sep 4.6 20:29:23 10° NNE 20:33:08 27° ENE 20:36:12 14° SE visible
08 Sep 5.4 22:07:10 10° NNW 22:10:57 28° W 22:13:20 17° SW visible
09 Sep 3.8 20:45:40 10° N 20:49:56 47° ENE 20:53:16 16° SSE visible
09 Sep 6.2 22:24:39 10° NW 22:27:26 16° W 22:30:03 10° WSW visible
10 Sep 3.5 21:02:12 10° N 21:06:38 87° E 21:10:24 14° S visible
